Temp
42 43 43 43 42 42 41 40 35 30 31 35 37 40 40 41 43 42 42 47 50 50 51 51 50 50 50 51 51 51 51 51 53 53 53 54 54 55
43 43 42 42 41 41 40 39 37 34 30 35 36 38 40 45 45 43 42 46 47 49 50 49 50 50 50 50 50 50 51 51 51 52 52 53 53 54
43 43 42 43 40 40 39 39 37 35 30 35 37 38 36 37 39 39 42 41 41 47 48 49 49 49 49 49 49 50 49 49 50 50 51 51 52 52
42 42 41 45 41 41 38 37 36 36 33 30 34 35 35 36 36 36 42 45 40 45 47 47 47 48 48 48 47 48 48 49 48 48 48 49 50 51
42 41 41 40 39 38 37 35 35 39 34 32 31 34 34 35 37 36 37 36 42 44 45 45 46 46 45 45 46 46 47 47 47 47 47 48 48 49
41 41 41 39 37 36 37 34 36 33 33 31 32 33 32 35 34 31 32 35 34 40 41 42 42 42 43 43 44 44 45 46 46 47 47 47 47 48
40 42 38 38 40 39 38 34 33 32 32 31 33 31 30 31 29 31 30 31 33 34 34 34 35 36 36 40 41 42 44 44 45 46 46 46 47 47
39 39 38 39 40 41 42 42 40 36 34 33 30 28 28 29 31 30 29 28 26 33 31 31 34 33 35 36 42 43 42 43 44 45 46 46 46 46
37 38 39 41 39 37 39 41 40 42 42 35 29 28 28 30 32 30 28 27 27 31 31 28 33 31 34 38 40 41 42 43 43 44 44 43 45 46
37 36 35 35 37 37 36 34 35 35 35 37 33 31 35 38 36 33 31 29 30 31 31 25 30 29 32 33 39 40 41 42 42 42 43 43 44 44
37 36 36 35 39 40 34 31 30 32 40 40 40 40 41 41 39 34 28 26 24 27 30 27 28 28 30 30 33 39 40 40 40 41 42 42 42 43
35 36 40 36 39 38 32 29 27 29 29 30 31 32 33 33 37 30 28 24 24 23 28 26 27 27 25 29 30 32 33 37 39 39 40 40 41 39
34 33 35 38 38 37 37 30 31 33 31 29 28 28 28 28 29 29 29 27 23 23 30 30 26 26 26 26 29 31 32 32 32 33 37 38 39 39
32 31 33 37 37 37 34 37 37 35 29 27 26 26 27 27 28 28 29 29 29 28 31 30 26 26 25 24 24 29 30 31 30 30 31 35 38 39
33 35 36 36 36 34 36 36 34 29 27 25 25 25 26 27 28 28 29 29 29 29 32 30 28 27 27 25 25 26 27 28 30 28 30 30 30 32
34 32 35 35 35 33 31 30 29 28 26 24 24 25 27 26 26 26 24 25 24 26 30 30 30 28 26 26 27 25 27 24 28 29 29 30 31 32
32 29 28 28 27 27 26 26 26 27 26 25 25 24 25 26 25 26 25 23 22 23 25 28 30 29 28 27 25 26 25 26 28 28 28 27 29 31
30 26 25 25 25 25 25 25 26 26 26 26 25 24 23 23 22 24 24 22 22 23 24 25 26 25 26 28 33 26 26 25 26 27 27 25 25 29
26 25 24 24 23 24 23 23 23 25 25 23 22 22 23 22 23 22 23 23 22 23 23 26 25 24 21 19 27 35 25 24 24 24 25 25 25 28
25 23 22 23 23 22 22 21 23 23 23 22 22 22 23 23 22 22 22 22 22 23 24 26 25 24 22 22 22 25 32 26 25 24 25 26 28 34
23 22 23 23 22 22 22 22 22 23 25 22 22 23 24 23 22 23 23 27 27 24 22 23 27 34 29 26 20 23 28 33 32 27 26 24 23 25
23 22 22 22 22 24 24 24 24 23 22 22 23 23 23 24 23 23 23 23 23 24 24 26 28 28 26 23 21 22 24 27 31 32 33 31 25 22
21 20 21 25 25 25 25 22 23 24 24 22 22 22 23 23 25 25 25 25 25 25 25 26 27 28 26 24 25 23 22 23 24 24 26 33 33 34
MSLP
1027.74 1028.01 1028.37 1028.73 1028.97 1029.37 1029.73 1030.06 1030.47 1030.98 1030.86 1030.45 1030.40 1029.67 1029.53 1029.48 1029.28 1029.09 1028.97 1028.53 1028.08 1027.60 1027.12 1026.81 1026.48 1026.04 1025.74 1025.30 1024.75 1024.20 1023.69 1023.13 1022.42 1022.12 1021.75 1021.33 1020.99 1020.70
1028.00 1028.44 1028.72 1029.09 1029.25 1029.37 1029.81 1030.24 1030.50 1030.94 1031.23 1030.63 1030.65 1030.16 1029.58 1029.27 1029.06 1028.83 1028.73 1028.36 1027.90 1027.40 1027.09 1026.65 1026.29 1025.87 1025.42 1025.03 1024.54 1023.97 1023.40 1022.80 1022.35 1021.82 1021.33 1020.95 1020.77 1020.49
1028.00 1028.77 1028.95 1029.26 1029.46 1029.52 1029.80 1030.27 1030.46 1030.81 1031.01 1030.79 1030.51 1029.93 1029.63 1029.40 1029.04 1028.69 1028.42 1028.08 1027.63 1027.31 1026.77 1026.23 1025.91 1025.42 1024.92 1024.35 1023.81 1023.30 1022.94 1022.54 1022.02 1021.56 1021.28 1020.83 1020.40 1020.05
1028.12 1029.11 1028.99 1029.44 1029.63 1029.65 1030.16 1030.26 1030.37 1030.64 1030.87 1031.10 1030.53 1030.22 1029.77 1029.41 1029.10 1028.80 1028.33 1028.02 1027.98 1027.37 1026.84 1026.28 1025.78 1025.29 1024.92 1024.24 1023.71 1023.15 1022.57 1021.90 1021.72 1021.41 1021.06 1020.60 1020.25 1019.71
1028.53 1028.90 1029.61 1029.71 1029.79 1030.12 1030.38 1030.36 1030.44 1030.56 1030.73 1030.84 1030.66 1030.22 1029.71 1029.47 1028.98 1028.81 1028.54 1028.25 1027.89 1027.39 1026.86 1026.25 1025.75 1025.21 1024.89 1024.25 1023.60 1022.82 1022.31 1021.71 1021.24 1020.96 1020.50 1020.22 1019.79 1019.34
1028.86 1029.25 1029.77 1030.19 1030.33 1030.53 1030.68 1030.48 1030.77 1030.84 1031.06 1030.99 1030.80 1030.36 1029.95 1029.50 1029.21 1028.98 1028.54 1028.30 1027.72 1027.22 1026.77 1026.34 1026.04 1025.44 1024.87 1024.05 1023.18 1022.65 1022.16 1021.55 1021.05 1020.38 1019.97 1019.64 1019.14 1018.72
1029.11 1029.43 1030.05 1030.41 1030.52 1030.67 1030.62 1030.61 1031.02 1031.09 1030.99 1031.03 1030.61 1030.32 1029.91 1029.69 1029.46 1029.05 1028.82 1028.35 1027.89 1027.15 1026.89 1026.47 1025.84 1025.33 1024.76 1023.97 1023.25 1022.55 1021.63 1021.25 1020.62 1020.00 1019.42 1018.94 1018.35 1017.96
1029.49 1029.68 1030.13 1030.31 1030.46 1030.34 1030.29 1030.29 1030.62 1030.42 1030.50 1030.61 1030.41 1030.41 1030.11 1029.86 1029.45 1029.08 1028.83 1028.53 1027.76 1027.31 1026.45 1025.70 1025.52 1024.98 1024.33 1023.73 1022.96 1022.28 1021.79 1020.89 1020.03 1019.29 1018.63 1017.98 1017.63 1017.27
1029.57 1029.78 1029.94 1030.11 1030.33 1030.53 1030.61 1030.55 1030.52 1030.10 1029.94 1030.14 1030.23 1030.16 1029.84 1029.61 1029.19 1028.76 1028.53 1028.29 1027.81 1027.03 1026.50 1025.69 1025.25 1024.70 1024.15 1023.22 1022.25 1021.39 1020.89 1020.11 1019.44 1019.01 1018.35 1017.76 1016.94 1016.51
1029.62 1029.98 1030.38 1030.48 1030.52 1030.71 1030.65 1030.81 1030.71 1030.52 1030.45 1030.06 1030.03 1029.80 1029.44 1028.82 1028.67 1028.46 1028.08 1027.87 1027.42 1026.84 1026.35 1025.42 1024.93 1024.27 1023.69 1022.91 1021.96 1021.01 1020.19 1019.76 1019.41 1018.64 1018.00 1017.24 1016.60 1016.07
1029.43 1030.11 1030.41 1030.72 1030.66 1030.44 1030.70 1030.84 1030.82 1030.70 1030.25 1030.09 1029.93 1029.47 1029.16 1028.71 1028.34 1028.21 1028.24 1027.98 1027.30 1026.87 1026.34 1025.77 1024.89 1024.13 1023.05 1022.36 1021.29 1020.62 1020.22 1019.45 1018.96 1018.13 1017.42 1016.81 1016.15 1015.43
1029.72 1029.99 1030.03 1030.65 1030.76 1030.79 1030.75 1030.84 1030.92 1030.93 1030.60 1030.45 1030.36 1029.93 1029.74 1029.40 1028.74 1028.84 1028.47 1028.14 1027.75 1026.60 1026.04 1025.97 1024.91 1024.37 1022.65 1021.72 1021.11 1020.06 1019.75 1019.05 1018.38 1017.69 1017.07 1016.44 1015.76 1015.13
1029.79 1030.08 1030.40 1030.49 1030.77 1030.70 1030.49 1031.10 1030.74 1030.60 1030.50 1030.51 1030.46 1030.24 1030.05 1029.61 1029.19 1028.90 1028.54 1028.23 1027.68 1026.96 1026.09 1025.35 1024.57 1024.14 1023.63 1021.39 1020.17 1020.01 1019.42 1018.47 1017.96 1017.17 1016.50 1015.90 1015.29 1014.76
1029.91 1030.39 1030.56 1030.34 1030.56 1030.52 1030.67 1030.53 1030.49 1030.56 1030.68 1030.71 1030.46 1030.26 1029.93 1029.51 1029.25 1028.67 1028.05 1027.57 1027.11 1026.34 1025.47 1025.24 1024.55 1023.76 1022.83 1021.54 1020.22 1019.40 1018.86 1018.07 1017.49 1016.68 1016.01 1015.33 1014.77 1014.26
1029.99 1030.24 1030.29 1030.26 1030.41 1030.65 1030.52 1030.78 1031.07 1031.15 1030.80 1030.68 1030.53 1030.27 1029.96 1029.48 1028.92 1028.35 1027.73 1027.18 1026.55 1025.72 1024.43 1024.20 1023.64 1023.01 1022.69 1021.33 1020.26 1019.24 1018.28 1017.41 1016.76 1016.19 1015.52 1015.03 1014.53 1013.93
1030.20 1030.39 1030.00 1030.13 1030.67 1030.92 1031.05 1031.31 1031.36 1031.34 1031.01 1031.04 1030.69 1030.34 1029.75 1029.09 1028.51 1027.97 1027.43 1026.63 1025.94 1024.73 1024.13 1023.32 1022.75 1022.48 1021.76 1020.85 1020.08 1018.67 1018.05 1017.42 1016.38 1015.67 1015.03 1014.42 1013.86 1013.31
1029.99 1030.23 1030.52 1031.06 1031.45 1031.43 1031.41 1031.65 1031.76 1031.46 1031.09 1031.00 1030.74 1030.03 1029.52 1028.95 1028.42 1027.54 1027.09 1026.65 1025.42 1024.50 1023.53 1022.53 1021.76 1021.51 1020.83 1020.09 1019.16 1018.22 1017.37 1016.62 1015.83 1015.12 1014.57 1013.80 1013.08 1012.56
1030.02 1030.84 1031.16 1031.53 1031.83 1031.84 1032.04 1032.00 1031.68 1031.52 1031.20 1030.88 1030.44 1030.01 1029.48 1028.77 1028.18 1027.26 1026.73 1026.13 1025.42 1024.20 1023.15 1022.03 1021.36 1020.60 1019.47 1018.55 1018.25 1017.33 1016.73 1016.17 1015.30 1014.67 1014.11 1013.40 1012.50 1011.81
1030.77 1031.26 1031.48 1031.79 1032.16 1032.20 1032.37 1032.26 1031.90 1031.32 1030.88 1030.62 1030.21 1029.53 1029.06 1028.51 1027.90 1026.93 1026.46 1025.68 1024.65 1023.71 1022.41 1021.63 1020.75 1020.10 1018.97 1017.84 1016.65 1016.51 1016.20 1015.47 1014.69 1013.96 1013.28 1012.72 1011.85 1011.10
1031.34 1031.55 1031.89 1032.33 1032.49 1032.55 1032.33 1032.10 1031.61 1031.04 1030.69 1030.34 1030.01 1029.42 1028.58 1028.64 1027.31 1026.60 1025.84 1024.90 1023.95 1022.78 1021.53 1020.59 1020.06 1019.35 1018.61 1017.60 1016.61 1015.46 1015.28 1014.68 1014.06 1013.05 1012.30 1011.73 1010.97 1010.15
1031.68 1032.22 1032.18 1032.20 1032.33 1032.36 1032.17 1031.69 1031.38 1030.99 1030.65 1030.13 1029.69 1028.68 1028.46 1027.62 1026.51 1025.99 1025.04 1023.97 1023.02 1022.03 1021.00 1019.82 1018.91 1018.22 1017.68 1017.24 1016.53 1015.19 1013.96 1013.65 1013.11 1012.41 1011.67 1010.90 1010.02 1009.27
1032.14 1032.27 1031.99 1032.02 1032.06 1032.01 1031.97 1031.45 1031.10 1030.62 1030.49 1029.88 1028.76 1028.20 1027.69 1026.93 1026.10 1025.13 1024.21 1023.20 1022.05 1021.19 1020.11 1019.00 1018.07 1017.50 1017.01 1016.56 1015.70 1014.82 1013.79 1012.74 1012.09 1011.43 1010.88 1010.35 1009.53 1008.23
1032.17 1031.97 1031.69 1031.59 1031.85 1031.86 1031.73 1031.26 1030.79 1030.32 1030.02 1029.09 1028.47 1027.73 1027.03 1026.24 1025.28 1024.29 1023.29 1022.22 1021.21 1020.10 1019.21 1018.08 1017.39 1016.77 1016.15 1015.83 1015.17 1014.26 1013.51 1012.61 1011.75 1010.87 1009.60 1009.25 1008.59 1007.69
Wind_Speed
5 5 4 3 4 4 3 2 3 1 2 2 3 4 4 3 6 4 6 10 18 20 21 21 21 21 22 23 23 23 23 23 23 23 23 24 21 22
4 5 4 3 3 4 3 2 2 2 2 1 2 4 4 5 7 7 6 14 18 19 22 22 22 23 23 23 23 23 23 22 23 23 23 22 21 21
6 5 5 4 3 3 3 1 1 1 2 4 2 4 4 5 6 5 7 7 6 21 24 25 25 24 24 23 23 23 23 23 23 23 23 23 22 21
6 5 5 3 3 3 2 1 1 1 1 5 3 3 4 5 4 6 7 6 7 15 22 25 25 25 26 25 28 26 24 23 23 23 23 23 24 23
6 6 4 4 3 3 2 2 2 2 2 2 4 3 3 3 7 4 5 6 7 16 20 22 22 23 28 27 26 25 24 24 23 23 22 21 22 23
6 6 5 5 5 4 3 5 5 5 4 3 3 4 2 4 4 3 7 6 7 9 13 17 19 24 23 25 25 24 24 23 24 25 24 23 22 22
6 5 6 5 5 3 3 4 4 3 3 3 4 3 4 6 5 5 7 7 9 5 8 8 9 9 10 17 19 24 24 27 28 28 25 23 23 21
5 5 5 6 3 3 4 6 6 4 2 4 3 4 5 4 5 6 6 8 8 4 10 10 8 9 9 9 21 26 29 28 26 25 25 25 21 21
5 4 3 4 3 5 6 8 9 10 10 6 4 3 4 4 7 8 8 7 8 8 9 11 8 10 8 10 25 28 27 24 23 24 26 24 21 19
6 6 5 5 4 4 4 5 5 5 5 5 4 4 7 9 7 6 7 7 6 5 5 11 9 9 10 9 25 24 20 24 31 27 26 26 24 24
5 6 5 5 5 9 5 5 6 5 8 15 17 17 18 17 15 7 6 7 9 9 8 6 7 12 9 10 8 16 26 26 27 27 26 26 26 26
4 5 6 5 8 9 4 4 5 5 6 6 7 7 9 10 14 6 6 8 9 9 1 9 9 9 9 4 7 9 9 21 27 26 26 25 25 11
4 4 3 8 9 10 9 4 4 7 8 5 4 4 5 5 5 5 7 5 8 9 12 11 9 9 8 14 8 10 11 12 11 14 21 23 24 21
5 4 3 8 9 10 7 11 12 9 3 3 4 5 6 6 7 8 9 8 8 12 13 11 9 11 12 12 14 12 12 11 9 10 10 14 20 21
4 4 6 7 8 6 11 12 11 5 5 4 5 5 5 7 9 8 8 9 10 12 10 11 9 11 10 12 14 13 16 12 11 8 9 9 9 8
6 4 7 9 10 8 6 6 4 5 5 4 5 6 7 6 8 7 7 8 9 10 12 11 11 11 11 11 12 13 12 11 12 10 10 9 9 8
5 4 4 4 3 3 4 4 4 5 5 5 6 7 8 8 8 8 7 8 10 11 12 11 12 12 12 14 13 12 12 11 9 9 11 11 10 9
6 4 3 3 3 4 4 5 5 8 6 6 7 7 8 8 9 9 8 8 10 12 12 11 11 11 11 10 14 10 10 10 10 11 11 11 10 9
4 3 3 4 3 3 3 4 5 6 7 5 6 7 7 8 13 10 9 9 11 12 12 11 10 10 12 13 11 14 10 10 11 11 10 9 11 10
3 3 3 1 2 3 3 3 5 6 6 6 6 8 8 8 9 10 10 11 12 12 12 11 10 10 10 10 13 15 18 10 10 10 9 9 11 22
3 2 1 1 2 3 4 5 6 6 8 7 7 6 8 8 10 11 12 21 21 12 13 13 12 24 10 8 9 12 12 17 15 12 11 10 10 10
1 1 1 1 2 4 5 6 6 7 7 7 8 7 8 9 10 12 12 13 13 12 13 12 12 9 8 8 12 14 10 11 15 20 21 19 9 8
0 1 1 3 4 5 6 5 6 8 9 8 8 9 10 11 12 12 12 13 14 13 13 11 11 10 10 8 13 11 15 13 10 11 12 19 22 22
Wind_Direction
102 96 103 94 86 87 73 88 133 18 301 314 8 16 348 349 319 333 306 304 336 330 334 334 331 330 325 320 318 315 315 313 310 306 308 303 305 302
113 100 96 85 109 105 107 68 74 131 265 359 308 309 333 335 330 333 323 341 327 334 334 330 330 327 326 324 319 315 311 312 309 309 304 304 303 303
108 110 102 85 81 85 83 94 74 117 264 299 302 310 330 333 315 328 331 318 325 337 332 330 329 328 328 322 321 323 321 313 311 308 306 303 303 301
113 123 117 118 96 80 78 45 65 287 189 287 299 301 318 311 325 324 315 349 338 328 329 325 326 328 323 328 325 318 314 316 309 306 300 299 299 300
122 110 113 107 82 64 39 5 342 331 339 296 293 298 305 325 330 313 343 333 322 331 324 325 332 328 326 321 322 320 325 317 309 304 303 306 300 296
91 93 86 69 66 45 17 24 24 3 331 344 305 307 310 321 307 319 327 326 324 324 320 328 331 320 322 322 322 319 315 310 312 311 306 303 296 293
102 107 91 96 82 57 25 19 346 316 310 297 302 303 315 326 320 331 319 324 320 310 312 320 317 314 314 317 315 308 319 320 314 309 302 300 297 295
122 123 138 128 134 25 3 327 282 276 309 288 289 294 294 315 321 321 321 323 323 311 321 316 316 310 308 300 305 316 313 315 312 307 306 301 292 287
123 107 108 109 67 55 344 330 327 326 329 314 306 303 310 303 305 309 305 299 298 308 310 308 313 304 300 306 307 305 312 311 321 324 318 319 308 300
107 96 76 52 49 11 311 335 323 328 304 299 315 297 288 304 298 291 298 297 293 288 299 301 311 301 308 299 300 307 317 325 319 314 316 313 310 304
105 103 89 64 8 357 23 345 336 326 346 340 327 323 322 327 324 331 333 328 317 317 311 294 315 303 299 292 282 318 318 313 315 313 314 314 310 303
130 125 111 83 14 355 18 357 335 316 335 332 320 330 349 332 347 350 335 326 319 314 288 316 310 319 312 273 315 305 305 306 309 310 310 310 308 298
105 84 67 37 7 359 2 355 328 338 331 322 335 339 317 320 329 323 312 299 302 287 292 308 309 305 293 308 310 307 304 304 299 298 300 304 306 300
95 88 58 23 10 11 19 348 344 1 339 339 335 319 321 328 317 305 295 288 276 275 290 292 287 299 303 301 303 306 304 297 294 296 298 300 308 305
104 75 49 27 19 14 3 4 10 353 346 344 332 326 315 303 298 297 295 290 281 284 288 285 283 295 291 293 297 298 302 305 296 290 296 298 295 295
60 64 51 48 34 26 29 18 9 348 345 328 327 311 301 304 308 307 300 305 305 302 301 297 295 292 288 286 287 292 296 293 298 292 287 286 287 279
85 63 55 45 28 16 19 3 342 332 336 319 311 313 312 313 306 308 303 307 304 305 305 308 302 289 279 277 282 287 291 290 290 294 298 293 289 280
74 66 61 42 27 18 355 337 333 327 319 315 309 306 307 312 313 313 314 306 302 301 300 301 300 294 296 279 264 281 289 291 292 292 290 286 287 285
72 62 55 42 13 350 324 317 312 311 308 300 298 298 314 312 317 310 305 298 298 294 293 294 296 297 298 298 305 303 303 291 292 286 278 271 278 281
66 55 49 17 336 314 298 294 308 310 304 296 307 311 302 298 302 302 298 298 294 292 294 299 295 292 290 297 309 302 301 288 287 287 289 282 274 278
62 48 53 1 313 297 302 306 301 303 310 315 291 293 296 300 299 294 292 298 301 299 294 295 294 297 291 288 290 296 301 299 300 299 298 288 287 283
58 34 359 303 312 322 304 302 302 304 302 287 300 301 297 295 291 293 290 291 292 289 288 290 294 296 287 278 288 294 298 308 309 302 299 291 289 282
7 287 326 343 318 309 292 288 302 309 309 309 302 298 295 294 292 289 288 289 289 291 289 293 299 297 288 282 292 300 300 305 310 311 309 307 302 296